TimeEST,TemperatureF,Dew PointF,Humidity,Sea Level PressureIn,VisibilityMPH,Wind Direction,Wind SpeedMPH,Gust SpeedMPH,PrecipitationIn,Events,Conditions,WindDirDegrees,DateUTC
12:54 AM,51.1,48.0,89,30.43,9.0,Calm,Calm,-,N/A,,Clear,0,2013-01-10 05:54:00
1:54 AM,51.1,48.0,89,30.43,9.0,Calm,Calm,-,N/A,,Clear,0,2013-01-10 06:54:00
2:54 AM,48.9,46.9,93,30.44,8.0,North,3.5,-,N/A,,Clear,10,2013-01-10 07:54:00
3:54 AM,46.0,44.1,93,30.44,6.0,Calm,Calm,-,N/A,,Clear,0,2013-01-10 08:54:00
4:48 AM,46.4,46.4,100,30.42,1.2,Calm,Calm,-,N/A,,Clear,0,2013-01-10 09:48:00
4:54 AM,44.1,44.1,100,30.43,0.5,Calm,Calm,-,N/A,Fog,Fog,0,2013-01-10 09:54:00
5:01 AM,44.1,44.1,100,30.43,1.0,Calm,Calm,-,N/A,,Clear,0,2013-01-10 10:01:00
5:11 AM,45.0,44.1,97,30.44,2.0,North,3.5,-,N/A,,Clear,360,2013-01-10 10:11:00
5:40 AM,44.1,44.1,100,30.44,1.8,North,3.5,-,N/A,,Clear,10,2013-01-10 10:40:00
5:50 AM,44.6,44.6,100,30.44,3.0,NNE,4.6,-,N/A,,Clear,20,2013-01-10 10:50:00
5:54 AM,44.1,44.1,100,30.44,3.0,NNE,4.6,-,N/A,,Clear,20,2013-01-10 10:54:00
6:18 AM,44.1,44.1,100,30.45,1.8,North,3.5,-,N/A,,Clear,10,2013-01-10 11:18:00
6:27 AM,46.0,45.0,96,30.45,2.5,Calm,Calm,-,N/A,,Clear,0,2013-01-10 11:27:00
6:34 AM,45.0,45.0,100,30.45,3.0,Calm,Calm,-,N/A,,Clear,0,2013-01-10 11:34:00
6:54 AM,44.1,44.1,100,30.46,6.0,Calm,Calm,-,N/A,,Clear,0,2013-01-10 11:54:00
7:29 AM,44.1,44.1,100,30.47,1.8,NNE,3.5,-,N/A,,Clear,20,2013-01-10 12:29:00
7:33 AM,44.1,44.1,100,30.47,0.5,NNE,3.5,-,N/A,Fog,Fog,20,2013-01-10 12:33:00
7:51 AM,44.6,44.6,100,30.48,1.0,Calm,Calm,-,N/A,,Clear,0,2013-01-10 12:51:00
7:54 AM,45.0,45.0,100,30.48,1.0,Calm,Calm,-,N/A,,Clear,0,2013-01-10 12:54:00
8:18 AM,46.9,46.9,100,30.48,3.0,Calm,Calm,-,N/A,,Clear,0,2013-01-10 13:18:00
8:54 AM,53.1,51.1,93,30.49,5.0,Calm,Calm,-,N/A,,Clear,0,2013-01-10 13:54:00
9:54 AM,57.0,51.1,81,30.50,9.0,Calm,Calm,-,N/A,,Clear,0,2013-01-10 14:54:00
10:54 AM,61.0,50.0,67,30.48,10.0,Variable,4.6,-,N/A,,Clear,0,2013-01-10 15:54:00
11:54 AM,63.0,50.0,63,30.46,10.0,ENE,4.6,-,N/A,,Clear,70,2013-01-10 16:54:00
12:54 PM,66.9,50.0,54,30.43,10.0,Variable,4.6,-,N/A,,Clear,0,2013-01-10 17:54:00
1:54 PM,69.1,48.9,49,30.41,10.0,Variable,3.5,-,N/A,,Clear,0,2013-01-10 18:54:00
2:54 PM,69.1,50.0,51,30.40,10.0,Variable,5.8,-,N/A,,Clear,0,2013-01-10 19:54:00
3:54 PM,69.1,48.9,49,30.40,10.0,ESE,4.6,-,N/A,,Clear,110,2013-01-10 20:54:00
4:54 PM,66.9,48.0,51,30.41,10.0,East,4.6,-,N/A,,Clear,100,2013-01-10 21:54:00
5:54 PM,64.0,48.9,58,30.41,10.0,Calm,Calm,-,N/A,,Overcast,0,2013-01-10 22:54:00
6:54 PM,63.0,48.0,58,30.42,10.0,East,4.6,-,N/A,,Overcast,100,2013-01-10 23:54:00
7:54 PM,62.1,48.0,60,30.41,10.0,East,4.6,-,N/A,,Overcast,100,2013-01-11 00:54:00
8:54 PM,62.1,45.0,53,30.40,10.0,East,5.8,-,N/A,,Overcast,90,2013-01-11 01:54:00
9:54 PM,60.1,44.1,55,30.39,10.0,East,5.8,-,N/A,,Scattered Clouds,100,2013-01-11 02:54:00
10:54 PM,59.0,46.0,62,30.38,9.0,ESE,8.1,-,N/A,,Overcast,120,2013-01-11 03:54:00
11:20 PM,55.0,50.0,83,30.39,2.0,Calm,Calm,-,0.02,Rain,Rain,0,2013-01-11 04:20:00
11:31 PM,54.0,52.0,93,30.38,7.0,East,3.5,-,0.02,Rain,Light Rain,90,2013-01-11 04:31:00
11:38 PM,54.0,52.0,93,30.38,8.0,East,3.5,-,0.02,,Overcast,100,2013-01-11 04:38:00